This demonstration page uses our WeatherBlox Daily Observations layout. Learn more.

Left ArrowRight Arrow

39.51506, -84.39828

Hourly Observations for August 16, 2022

Temp ( °F °C ) Dew Point ( °F °C ) Humidity (%) Winds ( mph kmh ) Pressure ( in mb ) Visibility ( mi km ) Precip ( " mm )
12:15 am 00:15 Clear 66 18.7 60 15.7 83 83 N 6 9 30.01 1016 10 16 0.00 0.00
12:35 am 00:35 Clear 65 18.5 61 15.9 85 85 NNE 6 9 30.01 1016 10 16 0.00 0.00
12:55 am 00:55 Clear 65 18.3 61 16.1 87 87 Calm 30.01 1016 10 16 0.00 0.00
1:15 am 01:15 Clear 64 17.7 62 16.5 93 93 Calm 30.00 1016 10 16 0.00 0.00
1:35 am 01:35 Clear 64 18 62 16.5 91 91 N 6 9 30.00 1016 10 16 0.00 0.00
1:55 am 01:55 Clear 65 18.2 62 16.5 90 90 N 6 9 29.99 1016 10 16 0.00 0.00
2:15 am 02:15 Clear 63 17.4 61 16.3 93 93 Calm 29.99 1016 10 16 0.00 0.00
2:35 am 02:35 Clear 63 17.3 61 16.2 93 93 Calm 29.99 1016 10 16 0.00 0.00
2:55 am 02:55 Clear 63 17.3 61 16.3 94 94 Calm 29.99 1016 10 16 0.00 0.00
3:15 am 03:15 Clear 62 16.9 61 16.3 96 96 N 3 6 29.99 1016 10 16 0.00 0.00
3:35 am 03:35 Clear 63 17.1 62 16.5 96 96 N 5 7 29.98 1015 10 16 0.00 0.00
3:55 am 03:55 Clear 63 17.2 62 16.6 96 96 N 6 9 29.98 1015 10 16 0.00 0.00
4:15 am 04:15 Clear 63 17.1 62 16.7 97 97 NNE 6 9 29.98 1015 10 16 0.00 0.00
4:35 am 04:35 Clear 62 16.9 62 16.6 98 98 N 6 9 29.98 1015 10 16 0.00 0.00
4:55 am 04:55 Clear 61 16.2 61 16 99 99 N 3 6 29.98 1015 10 16 0.00 0.00
5:15 am 05:15 Clear 61 16.3 N/A N/A N 3 6 29.98 1015 10 16 0.00 0.00
5:35 am 05:35 Clear 60 15.7 N/A N/A N 5 7 30.00 1016 10 16 0.00 0.00
5:55 am 05:55 Clear 60 15.8 N/A N/A N 5 7 29.99 1016 10 16 0.00 0.00
6:15 am 06:15 Clear 60 15.6 N/A N/A NNW 5 7 30.00 1016 10 16 0.00 0.00
6:35 am 06:35 Clear 60 15.7 N/A N/A N 3 6 30.00 1016 10 16 0.00 0.00
6:55 am 06:55 Sunny 60 15.7 N/A N/A Calm 30.02 1016 10 16 0.00 0.00
7:15 am 07:15 Sunny 60 15.5 N/A N/A NNW 3 6 30.02 1016 10 16 0.00 0.00
7:35 am 07:35 Sunny 61 16.2 N/A N/A Calm 30.02 1017 10 16 0.00 0.00
7:55 am 07:55 Sunny 62 16.9 62 16.8 99 99 N 5 7 30.02 1017 10 16 0.00 0.00
8:15 am 08:15 Sunny 64 17.6 63 17.2 98 98 NNE 3 6 30.03 1017 10 16 0.00 0.00
8:35 am 08:35 Sunny 66 18.8 63 17.4 92 92 N 5 7 30.02 1016 10 16 0.00 0.00
8:55 am 08:55 Sunny 67 19.3 63 17.4 89 89 NNE 8 13 30.03 1017 10 16 0.00 0.00
9:15 am 09:15 Sunny 68 19.9 63 17.4 86 86 N 6 9 30.03 1017 10 16 0.00 0.00
9:35 am 09:35 Sunny 69 20.8 63 17.4 81 81 NNE 9 15 30.02 1017 10 16 0.00 0.00
9:55 am 09:55 Sunny 71 21.7 65 18.2 81 81 NNE 8 13 30.02 1017 10 16 0.00 0.00
10:15 am 10:15 Sunny 72 22.2 65 18.1 78 78 NNE 7 11 30.02 1017 10 16 0.00 0.00
10:35 am 10:35 Sunny 73 23 64 17.5 71 71 NNE 9 15 30.02 1017 10 16 0.00 0.00
10:55 am 10:55 Mostly Cloudy 75 23.9 63 17.2 66 66 N 5 7 30.02 1016 10 16 0.00 0.00
11:15 am 11:15 Partly Cloudy 76 24.5 61 16.1 60 60 N 10 17 30.02 1016 7 11 0.00 0.00
11:30 am 11:30 Hazy 77 25 61 15.9 57 57 NNE 7 11 30.01 1016 7 11 0.00 0.00
11:55 am 11:55 Partly Cloudy 76 24.5 60 15.7 58 58 N 6 9 30.02 1016 7 11 0.00 0.00
12:15 pm 12:15 Hazy 76 24.7 59 15.2 56 56 NNE 9 15 30.02 1016 7 11 0.00 0.00
12:35 pm 12:35 Mostly Cloudy 78 25.3 60 15.7 55 55 NNE 8 13 30.01 1016 7 11 0.00 0.00
12:55 pm 12:55 Hazy 78 25.7 59 14.8 51 51 NE 9 15 30.00 1016 7 11 0.00 0.00
1:15 pm 13:15 Hazy 80 26.4 58 14.7 49 49 NNE 10 17 30.00 1016 7 11 0.00 0.00
1:35 pm 13:35 Partly Cloudy 80 26.9 58 14.6 47 47 NNE 7 11 30.00 1016 7 11 0.00 0.00
1:55 pm 13:55 Hazy 80 26.7 58 14.3 47 47 NNE 6 9 29.99 1016 7 11 0.00 0.00
2:15 pm 14:15 Hazy 80 26.9 59 15 48 48 NNW 8 13 29.99 1016 7 11 0.00 0.00
2:35 pm 14:35 Hazy 81 27.3 58 14.4 45 45 NNW 14 22 29.99 1016 7 11 0.00 0.00
2:55 pm 14:55 Mostly Cloudy with Haze 81 27.3 57 14.1 44 44 N 13 20 29.98 1015 7 11 0.00 0.00
3:15 pm 15:15 Mostly Cloudy with Haze 78 25.3 59 15.1 53 53 NNE 9 15 29.99 1016 5 8 0.00 0.00
3:35 pm 15:35 Mostly Cloudy with Haze 81 27.2 60 15.5 49 49 NE 12 19 29.98 1015 5 8 0.00 0.00
3:55 pm 15:55 Mostly Cloudy with Haze 80 26.5 60 15.5 51 51 N 12 19 29.97 1015 4 6 0.00 0.00
4:15 pm 16:15 Mostly Cloudy with Haze 81 27.4 60 15.6 49 49 NNE 14 22 29.97 1015 5 8 0.00 0.00
4:35 pm 16:35 Mostly Cloudy with Haze 80 26.5 60 15.3 50 50 N 12 19 29.97 1015 4 6 0.00 0.00
4:55 pm 16:55 Mostly Cloudy with Haze 78 25.4 59 15.2 53 53 N 13 20 29.97 1015 4 6 0.00 0.00
5:15 pm 17:15 Hazy 81 27 59 15.2 48 48 N 13 20 29.96 1015 3 5 0.00 0.00
5:35 pm 17:35 Hazy 80 26.8 60 15.3 49 49 N 12 19 29.96 1015 3 4 0.00 0.00
5:55 pm 17:55 Hazy 79 25.9 60 15.8 54 54 N 14 22 29.96 1015 3 4 0.00 0.00
6:15 pm 18:15 Mostly Cloudy with Haze 79 25.9 60 15.7 53 53 N 12 19 29.96 1015 2 3 0.00 0.00
6:35 pm 18:35 Hazy 79 25.9 61 16.1 55 55 N 10 17 29.97 1015 3 4 0.00 0.00
6:55 pm 18:55 Cloudy with Haze 79 25.9 61 16 54 54 N 14 22 29.97 1015 2 3 0.00 0.00
7:15 pm 19:15 Mostly Cloudy with Haze 77 25.1 60 15.5 55 55 NNE 10 17 29.97 1015 2 3 0.00 0.00
7:35 pm 19:35 Hazy 76 24.6 61 15.9 58 58 NNE 6 9 29.97 1015 3 5 0.00 0.00
7:55 pm 19:55 Hazy 76 24.4 60 15.8 59 59 N 6 9 29.97 1015 4 6 0.00 0.00
8:15 pm 20:15 Mostly Cloudy with Haze 74 23.6 59 15.2 59 59 N 6 9 29.98 1015 3 5 0.00 0.00
8:35 pm 20:35 Hazy 73 22.7 60 15.4 63 63 N 7 11 29.99 1015 4 6 0.00 0.00
8:55 pm 20:55 Hazy 71 21.9 61 15.9 69 69 N 6 9 29.98 1015 4 6 0.00 0.00
9:15 pm 21:15 Mostly Cloudy 71 21.6 62 16.4 72 72 N 6 9 29.99 1016 7 11 0.00 0.00
9:35 pm 21:35 Mostly Cloudy 71 21.4 62 16.6 74 74 N 5 7 30.00 1016 7 11 0.00 0.00
9:55 pm 21:55 Partly Cloudy 69 20.7 62 16.8 78 78 NNW 3 6 30.01 1016 10 16 0.00 0.00
10:15 pm 22:15 Clear 67 19.7 63 17.2 86 86 N 5 7 30.01 1016 7 11 0.00 0.00
10:35 pm 22:35 Clear 67 19.4 63 17.4 88 88 N 3 6 30.03 1017 10 16 0.00 0.00
10:55 pm 22:55 Clear 66 19.1 64 17.5 90 90 N 6 9 30.03 1017 10 16 0.00 0.00
11:15 pm 23:15 Clear 67 19.4 62 16.9 85 85 N 5 7 30.03 1017 10 16 0.00 0.00
11:35 pm 23:35 Clear 65 18.4 63 17.4 94 94 N 3 6 30.04 1017 10 16 0.00 0.00
11:55 pm 23:55 Clear 65 18.2 63 17.3 94 94 NNW 5 7 30.04 1017 10 16 0.00 0.00

Powered by AerisWeather